[[{"header":{"parameterUnit":"m.s-1","parameterCategory":1,"la1":30.2991,"la2":30.254,"lo1":-89.0895,"lo2":-89.0444,"dy":0.0017,"dx":0.0017,"nx":28,"ny":28,"refTime":"2024-07-14T03:00:00:Z","depth":0,"parameterNumber":2,"parameterNumberName":"U-component_of_WINDS"},"data":[0,0,0,0,0,0,0,0,0,0,0,0,0,0,0,0,0,0,0,0,0,0,0,0,0,0,0,0,0,0,0,0,0,0,0,0,0,0,0,0,0,0,0,0,0,0,0,0,0,0,0,0,0,0,0,0,0,0,1.4895,1.4896,0,1.4939,1.494,1.494,1.489,1.4888,1.4886,1.4884,1.4934,1.4937,1.494,0,0,0,0,0,0,0,0,0,0,0,0,0,1.4771,1.4773,1.4895,1.4896,1.4896,1.4939,1.494,1.494,1.489,1.4888,1.4885,1.4883,1.4933,1.4937,1.4941,0,0,0,0,0,0,0,0,0,0,0,0,0,1.4821,1.4774,1.4895,1.4876,1.4875,1.4939,1.494,1.494,1.4891,1.4888,1.4885,1.4882,1.4932,1.4937,1.4941,1.5027,0,0,1.4955,1.4958,0,0,0,0,0,0,0,0,1.4818,1.4826,1.4879,1.4878,1.4876,1.4906,1.4914,1.497,1.4891,1.4885,1.4884,1.4881,1.4928,1.4932,1.4947,1.503,1.5032,1.4956,1.4959,1.4961,1.4962,0,0,0,0,0,0,0,1.4815,1.4823,1.4913,1.4879,1.4878,1.4867,1.4871,1.4924,1.4922,1.4885,1.4882,1.4887,1.4926,1.4943,1.4948,1.5033,1.4956,1.496,1.4963,1.4965,1.5186,1.5188,0,0,0,0,0,0,1.4813,1.4821,1.4911,1.4914,1.4839,1.4871,1.4876,1.4899,1.4921,1.4922,1.489,1.4885,1.4936,1.4942,1.4949,1.505,1.4961,1.4965,1.4968,1.5183,1.5186,1.519,0,0,0,0,0,0,1.481,1.4821,1.491,1.4866,1.4877,1.4876,1.4904,1.4902,1.4918,1.4924,1.4924,1.4906,1.4934,1.4943,1.5007,1.5051,1.4967,1.4971,1.5179,1.5184,1.5188,1.5254,0,0,0,0,0,0,1.4807,1.4821,1.4853,1.4867,1.4879,1.4966,1.4906,1.4905,1.4925,1.492,1.494,1.4941,1.4933,1.5001,1.5012,1.5056,1.4975,1.5175,1.5181,1.5186,1.5248,1.526,1.527,0,0,0,0,0,1.4803,1.4872,1.4855,1.4866,1.4919,1.4969,1.4976,1.4963,1.4929,1.4962,1.4965,1.494,1.5044,1.5008,1.502,1.5066,1.5172,1.5179,1.5186,1.5242,1.5258,1.527,0,0,0,0,0,0,1.4865,1.4873,1.4855,1.493,1.4949,1.496,1.5001,1.498,1.501,1.5004,1.4988,1.4993,1.5061,1.507,1.5029,1.515,1.5103,1.5113,1.5142,1.5156,1.5167,1.5164,1.4979,0,0,0,0,0,1.4887,1.4926,1.4931,1.4997,1.5007,1.5002,1.5024,1.5012,1.5031,1.504,1.5048,1.5069,1.5106,1.5132,1.5166,1.5248,1.5251,1.5286,1.5297,1.5307,1.5316,1.5358,1.5373,1.5212,1.5212,1.5212,0,0,1.4934,1.4943,1.4969,1.501,1.5023,1.5063,1.501,1.5056,1.5086,1.5047,1.5108,1.5115,1.5137,1.521,1.5243,1.522,1.536,1.5315,1.5323,1.5327,1.5366,1.5381,1.5395,1.5217,1.5216,1.5215,0,0,1.5041,1.5051,1.5106,1.512,1.5139,1.5135,1.5148,1.5162,1.5164,1.5224,1.5195,1.5231,1.5296,1.5313,1.533,1.5438,1.5416,1.545,1.551,1.5551,1.5564,1.5575,1.5613,1.5627,1.5459,1.5459,1.5459,0,1.5097,1.5156,1.5138,1.5185,1.5203,1.5167,1.5223,1.5237,1.5268,1.5282,1.5255,1.5333,1.5346,1.5421,1.5447,1.5462,1.5477,1.5448,1.5563,1.5574,1.5585,1.5621,1.5635,1.5463,1.5462,1.5462,1.5462,0,1.5224,1.5265,1.5307,1.5335,1.5358,1.5409,1.5399,1.5425,1.541,1.5409,1.547,1.5483,1.5519,1.5536,1.5524,1.5609,1.5594,1.5565,1.5518,1.5604,1.5638,1.5651,1.5469,1.5467,1.5466,1.5465,0,0,1.5373,1.5387,1.5403,1.5414,1.5431,1.5463,1.5512,1.5545,1.5567,1.5588,1.5629,1.5683,1.5656,1.5675,1.5664,1.57,1.5783,1.5667,1.5667,1.5687,1.5877,1.5898,1.5914,1.5768,1.577,1.5772,1.5875,0,1.5479,1.5562,1.5546,1.5628,1.5665,1.5629,1.5672,1.5687,1.5687,1.5719,1.5719,1.5757,1.5719,1.573,1.5764,1.5766,1.5821,1.5758,1.5806,1.5808,1.5801,1.5932,1.5955,1.6051,1.5888,1.589,1.5892,0,1.5614,1.5637,1.5722,1.5731,1.5746,1.5784,1.5811,1.5842,1.5859,1.5856,1.5875,1.5856,1.5905,1.5856,1.5922,1.588,1.5898,1.5902,1.5905,1.591,1.5855,1.594,1.6082,1.6096,1.5912,1.5911,1.5909,0,1.5713,1.5767,1.5823,1.5834,1.5846,1.5873,1.588,1.5893,1.5913,1.5937,1.5949,1.598,1.5997,1.602,1.601,1.5975,1.6078,1.6029,1.6077,1.6078,1.6102,1.61,1.6249,1.6113,1.6113,1.6113,1.6113,0,1.5833,1.5887,1.5868,1.5903,1.5961,1.5942,1.6,1.6002,1.6014,1.6049,1.6021,1.6054,1.6038,1.6071,1.6063,1.6119,1.6127,1.6126,1.6123,1.6128,1.6129,1.6141,1.6134,1.6117,1.6116,1.6115,1.6114,0,1.5955,1.5945,1.6004,1.6009,1.6011,1.6054,1.6059,1.6091,1.6087,1.6132,1.6141,1.6136,1.6172,1.6164,1.6205,1.6199,1.6269,1.6258,1.6263,1.626,1.6309,1.6304,1.6471,1.6491,1.6343,1.6344,1.6345,0,1.6033,1.6072,1.608,1.61,1.6108,1.6142,1.6161,1.6143,1.6164,1.6184,1.6214,1.6247,1.6273,1.6333,1.6333,1.6364,1.6353,1.6409,1.6358,1.6361,1.6353,1.6351,1.6354,1.642,1.6422,1.6423,1.6424,0,1.6171,1.6163,1.6191,1.6216,1.6239,1.6258,1.6275,1.6294,1.6277,1.6302,1.6338,1.6358,1.6397,1.6431,1.6458,1.6465,1.6442,1.644,1.6452,1.6459,1.6459,1.6459,1.6291,1.6437,1.6435,1.6434,1.6434,1.6433,1.6273,1.6305,1.6315,1.6346,1.6356,1.6372,1.6402,1.6401,1.6429,1.6459,1.6447,1.6487,1.65,1.6534,1.6544,1.6576,1.6555,1.6574,1.6579,1.6584,1.6589,1.6454,1.6581,1.6581,1.658,1.658,1.658,0,1.6409,1.6412,1.6441,1.6464,1.6489,1.6462,1.6479,1.6501,1.6537,1.655,1.6574,1.6615,1.6646,1.6647,1.6676,1.6701,1.6691,1.671,1.6708,1.671,1.6607,1.6592,1.6717,1.6717,1.6717,1.6717,1.6717,1.6717,1.6483,1.6535,1.6528,1.6586,1.6589,1.6627,1.6639,1.6653,1.6663,1.6708,1.6733,1.6733,1.6741,1.677,1.6797,1.6797,1.6809,1.6831,1.6827,1.6731,1.6717,1.6704,1.6691,1.6834,1.6834,1.6927,1.6928,1.6928]},{"header":{"parameterUnit":"m.s-1","parameterCategory":1,"la1":30.2991,"la2":30.254,"lo1":-89.0895,"lo2":-89.0444,"dy":0.0017,"dx":0.0017,"nx":28,"ny":28,"refTime":"2024-07-14T03:00:00:Z","depth":0,"parameterNumber":3,"parameterNumberName":"V-component_of_WINDS"},"data":[0,0,0,0,0,0,0,0,0,0,0,0,0,0,0,0,0,0,0,0,0,0,0,0,0,0,0,0,0,0,0,0,0,0,0,0,0,0,0,0,0,0,0,0,0,0,0,0,0,0,0,0,0,0,0,0,0,0,3.0856,3.0856,0,3.0867,3.0867,3.0867,3.0917,3.0918,3.0919,3.092,3.0928,3.0927,3.0926,0,0,0,0,0,0,0,0,0,0,0,0,0,3.0875,3.0874,3.0856,3.0856,3.0856,3.0867,3.0867,3.0867,3.0917,3.0918,3.0919,3.0921,3.0928,3.0927,3.0926,0,0,0,0,0,0,0,0,0,0,0,0,0,3.0874,3.0874,3.0856,3.0883,3.0885,3.0867,3.0867,3.0867,3.0916,3.0918,3.092,3.0922,3.0928,3.0927,3.0926,3.0882,0,0,3.0921,3.0921,0,0,0,0,0,0,0,0,3.0874,3.0873,3.0879,3.0881,3.0883,3.0892,3.0876,3.0872,3.0916,3.0904,3.092,3.0922,3.0914,3.0914,3.0912,3.0882,3.0882,3.0921,3.092,3.092,3.0919,0,0,0,0,0,0,0,3.0874,3.0873,3.086,3.0878,3.0881,3.0893,3.0894,3.0876,3.0899,3.0905,3.0909,3.091,3.0916,3.0913,3.0913,3.0882,3.0921,3.092,3.0919,3.0919,3.0815,3.0813,0,0,0,0,0,0,3.0871,3.0873,3.086,3.0861,3.0883,3.0891,3.0893,3.0888,3.0899,3.0903,3.0908,3.0912,3.0915,3.0914,3.0913,3.0861,3.092,3.0919,3.0918,3.0817,3.0814,3.0812,0,0,0,0,0,0,3.0871,3.0869,3.086,3.0868,3.0867,3.0889,3.0882,3.0887,3.0884,3.0902,3.0906,3.0902,3.0916,3.0915,3.0889,3.0862,3.0918,3.0917,3.0819,3.0816,3.0813,3.0756,0,0,0,0,0,0,3.0872,3.0869,3.0854,3.0867,3.0867,3.0836,3.0881,3.0886,3.0882,3.0887,3.0896,3.09,3.0917,3.0891,3.0887,3.0861,3.0916,3.0821,3.0818,3.0814,3.0761,3.0752,3.0744,0,0,0,0,0,3.0872,3.0837,3.0853,3.0851,3.0848,3.0835,3.0834,3.0856,3.088,3.0864,3.0875,3.0899,3.0866,3.0888,3.0884,3.0857,3.0823,3.0819,3.0814,3.0764,3.0753,3.0744,0,0,0,0,0,0,3.0818,3.0839,3.0857,3.0825,3.0828,3.0843,3.0823,3.0845,3.084,3.0844,3.0871,3.0873,3.0842,3.0847,3.0871,3.0814,3.0848,3.0843,3.0811,3.0801,3.0793,3.0791,3.0915,0,0,0,0,0,3.0803,3.0792,3.081,3.078,3.0781,3.0802,3.0797,3.0814,3.0817,3.0818,3.0827,3.0828,3.0818,3.081,3.0802,3.0762,3.0764,3.0742,3.0734,3.0727,3.0721,3.0698,3.0688,3.0798,3.0798,3.0798,0,0,3.0771,3.0781,3.0771,3.0769,3.0774,3.0759,3.0802,3.0786,3.0775,3.0815,3.0791,3.0797,3.0801,3.0767,3.0753,3.077,3.0691,3.0721,3.0716,3.0714,3.0693,3.0682,3.0673,3.0795,3.0795,3.0796,0,0,3.0704,3.0711,3.0686,3.069,3.0696,3.071,3.0704,3.0716,3.0722,3.0699,3.0728,3.0715,3.0697,3.0698,3.0695,3.0629,3.065,3.0625,3.0581,3.0559,3.055,3.0542,3.0516,3.0506,3.062,3.062,3.062,0,3.0662,3.0644,3.0671,3.0652,3.0649,3.0687,3.066,3.0662,3.0664,3.0661,3.0681,3.0659,3.0664,3.0629,3.0613,3.0611,3.0603,3.0623,3.0549,3.0542,3.0535,3.051,3.0501,3.0617,3.0617,3.0618,3.0618,0,3.0591,3.0578,3.0557,3.0559,3.0554,3.0532,3.0554,3.0546,3.0563,3.0575,3.0549,3.0556,3.0549,3.0543,3.056,3.051,3.0521,3.0545,3.058,3.0521,3.0498,3.0489,3.0612,3.0613,3.0614,3.0615,0,0,3.0489,3.0507,3.0498,3.0499,3.0509,3.0498,3.0477,3.0471,3.0462,3.0463,3.0444,3.0428,3.045,3.0447,3.0465,3.0445,3.0389,3.0472,3.0472,3.0453,3.0332,3.0312,3.03,3.0404,3.0403,3.0401,3.0331,0,3.0423,3.0389,3.0412,3.0373,3.036,3.0395,3.0377,3.0379,3.039,3.0379,3.039,3.0377,3.0409,3.0407,3.039,3.0399,3.0364,3.0405,3.0384,3.0383,3.038,3.0289,3.0268,3.0201,3.0322,3.0321,3.032,0,3.0341,3.0339,3.0299,3.031,3.0305,3.0288,3.0284,3.0274,3.0277,3.0286,3.0283,3.0305,3.0283,3.0319,3.0288,3.0315,3.0309,3.0312,3.031,3.0307,3.0346,3.028,3.018,3.0169,3.0306,3.0307,3.0308,0,3.0267,3.0254,3.0228,3.0228,3.0241,3.0228,3.0233,3.0238,3.0233,3.0229,3.0225,3.0218,3.0214,3.0207,3.0226,3.0251,3.0191,3.023,3.0195,3.0195,3.0179,3.0179,3.0074,3.0179,3.0179,3.018,3.018,0,3.019,3.0163,3.0195,3.0179,3.0149,3.0177,3.0146,3.0154,3.0159,3.0143,3.0174,3.0158,3.0186,3.0172,3.0187,3.0157,3.0156,3.016,3.0164,3.0156,3.0155,3.015,3.0154,3.0177,3.0178,3.0178,3.0179,0,3.0101,3.0122,3.0095,3.011,3.0114,3.0091,3.0103,3.0087,3.01,3.008,3.0077,3.0096,3.0082,3.0101,3.0088,3.0098,3.0057,3.0069,3.0056,3.0058,3.0022,3.0024,2.9907,2.9892,3.0009,3.0008,3.0007,0,3.0049,3.0029,3.0042,3.0035,3.0038,3.0025,3.002,3.0046,3.0039,3.0041,3.0025,3.0013,3.0005,2.9981,2.9992,2.9982,2.9993,2.9953,2.9991,2.9983,2.9989,2.9988,2.9985,2.9943,2.9942,2.9941,2.994,0,2.9953,2.9964,2.9956,2.9951,2.9944,2.9941,2.9941,2.9932,2.996,2.995,2.9936,2.993,2.9918,2.9905,2.9898,2.9901,2.9924,2.9928,2.9919,2.9909,2.9901,2.9902,3.0031,2.993,2.9931,2.9932,2.9932,2.9933,2.9879,2.9863,2.9869,2.9858,2.9861,2.986,2.9845,2.9857,2.9846,2.9839,2.9855,2.9836,2.9839,2.9833,2.9833,2.9818,2.9835,2.9823,2.9819,2.9815,2.9808,2.9906,2.9817,2.9818,2.9818,2.9818,2.9818,0,2.9782,2.9788,2.9779,2.9777,2.9768,2.9793,2.9794,2.9784,2.9768,2.977,2.9761,2.9745,2.9732,2.9744,2.9733,2.9719,2.9729,2.9715,2.9714,2.9714,2.9795,2.9802,2.9707,2.9707,2.9707,2.9707,2.9707,2.9707,2.9731,2.9703,2.9715,2.9689,2.9695,2.9679,2.9676,2.9674,2.9675,2.9656,2.9646,2.9655,2.9659,2.9649,2.9638,2.9642,2.9635,2.9617,2.9623,2.9698,2.9709,2.9719,2.9726,2.9616,2.9616,2.9544,2.9543,2.9543]}]]